Location: D�nning
(49.2479°N, 12.8491°E)
Time: 09:12:58
(UTC+00:00)

ATLAS 2AS CENTAUR R/B - Pass Details

Date: 18 September 2020
Orbit: 939 x 1273 km, 63.7° (Epoch: 26 October)

Event Time Altitude Azimuth Distance (km) Brightness Sun altitude
Exits shadow 22:59:05 12° 275° (W) 3,080 5.1 -39.4°
Maximum altitude 23:05:37 35° 337° (NNW) 1,906 4.3 -39.4°
Drops below altitude 10° 23:12:35 10° 42° (NE) 3,167 5.6 -39.3°
Sets 23:15:36 0° 51° (NE) 4,089 6.2 -39.3°
